Location: Sauerland
(51.1981°N, 7.8053°E)
Time: 16:04:50
(UTC+01:00)

ISS - Pass Details

Date: 22 February 2026
Orbit: 416 x 427 km, 51.6° (Epoch: 5 March)

Event Time Altitude Azimuth Distance (km) Brightness Sun altitude
Exits shadow 06:34:01 13° 276° (W) 1,310 -1.9 -9.2°
Maximum altitude 06:36:56 83° 5° (N) 425 -3.8 -8.8°
Drops below altitude 10° 06:40:17 10° 93° (E) 1,493 0.8 -8.2°
Sets 06:42:22 0° 94° (E) 2,355 2.7 -7.9°
